Meteo Giornale » Osservazioni meteo Stati Uniti (USA) » Sussex
ore: 23:23 - Osservazioni Meteo Sussex
Lat. 41° 12' N Lon. 74° 37' W Alt. 128 metri s.l.m.
21 °C
Pioggia
Temp. 24 Ore
19 °C
25 °C
Nord
0 Km/h
Dew point 0 °C
Umidità 24 %
Visibilità 3 Km
Il sole sorge alle ore 06:24
Il sole tramonta alle ore 19:33
| Data e Ora | Cielo e Fenomeni | T °C | DP °C | Um. % | Pres. hPa | Vis. km | Vento km/h | |
|---|---|---|---|---|---|---|---|---|
| Oggi h: 23:23 | Pioggia | 21 | 0 | 24 | 1017 | 3 | N 0 | |
| Oggi h: 23:15 | Pioggia | 21 | 0 | 24 | 1017 | 2 | N 0 | |
| Oggi h: 23:11 | Pioggia | 21 | 0 | 24 | 1017 | 3 | N 0 | |
| Oggi h: 23:02 | Pioggia | 21 | 0 | 24 | 1018 | 5 | N 0 | |
| Oggi h: 22:53 | Pioggia | 21 | 0 | 24 | 1018 | 5 | N 0 | |
| Oggi h: 22:21 | Pioggia | 21 | 0 | 24 | 1018 | 8 | N 0 | |
| Oggi h: 21:53 | Coperto | 21 | 0 | 24 | 1018 | 13 | N 0 | |
| Oggi h: 21:11 | Foschia | 21 | 0 | 24 | 1018 | 10 | N 0 | |
| Oggi h: 20:53 | Foschia | 21 | 0 | 24 | 1018 | 10 | N 0 | |
| Oggi h: 19:53 | Pioggia Foschia | 22 | 21 | 94 | 1018 | 10 | N 0 | |
| Oggi h: 18:53 | Coperto | 23 | 19 | 78 | 1018 | 10 | N 0 | |
| Oggi h: 17:53 | Coperto | 23 | 19 | 78 | 1018 | 10 | N 0 | |
| Oggi h: 16:53 | Coperto | 23 | 19 | 78 | 1019 | 10 | N 5.5 | |
| Oggi h: 15:53 | Pioggia | 22 | 20 | 88 | 1019 | 14 | N 5.5 | |
| Oggi h: 15:33 | Coperto | 22 | 19 | 83 | 1019 | 10 | N 0 | |
| Oggi h: 14:53 | Pioggia | 23 | 19 | 78 | 1020 | 6 | N 0 | |
| Oggi h: 13:53 | Coperto | 25 | 17 | 61 | 1020 | 10 | N 0 | |
| Oggi h: 12:53 | Coperto | 25 | 17 | 61 | 1020 | 10 | N 0 | |
| Oggi h: 11:53 | Molto Nuvoloso | 24 | 17 | 64 | 1020 | 10 | N 0 | |
| Oggi h: 10:53 | Coperto | 23 | 17 | 68 | 1020 | 10 | N 5.5 | |
| Oggi h: 09:53 | Coperto | 23 | 17 | 68 | 1021 | 10 | N 5.5 | |
| Oggi h: 08:53 | Poco Nuvoloso | 21 | 17 | 77 | 1020 | 10 | N 0 | |
| Oggi h: 07:53 | Sereno | 19 | 17 | 88 | 1020 | 10 | N 5.5 | |
| Oggi h: 06:53 | Poco Nuvoloso | 19 | 0 | 27 | 1020 | 10 | N 0 | |
| Oggi h: 05:53 | Sereno | 19 | 0 | 27 | 1019 | 10 | N 0 | |
| Oggi h: 04:53 | Coperto | 19 | 17 | 88 | 1019 | 10 | N 0 | |
| Oggi h: 03:53 | Coperto | 20 | 17 | 82 | 1019 | 10 | N 0 | |
| Oggi h: 02:53 | Coperto | 20 | 18 | 88 | 1019 | 10 | O 7.4 | |
| Oggi h: 01:53 | Coperto | 20 | 18 | 88 | 1019 | 10 | N 0 | |
| Oggi h: 00:53 | Poco Nuvoloso | 21 | 18 | 82 | 1019 | 10 | N 5.5 | |
| Ieri h: 23:53 | Poco Nuvoloso | 21 | 19 | 88 | 1019 | 10 | N 5.5 | |



